Weather History for Milas, Turkey

Change the Weather History Date:

Thursday, October 18, 2012

  Actual Average (LGKO) Record (LGKO)
Temperature  
Mean Temperature 74 °F -  
Max Temperature 91 °F 71 °F 84 °F (2012)
Min Temperature 57 °F 61 °F 51 °F (2011)
Cooling Degree Days 9    
Growing Degree Days 24 (Base 50)    
Moisture  
Dew Point 57 °F    
Average Humidity 59    
Maximum Humidity 88    
Minimum Humidity 24    
Precipitation  
Precipitation 0.00 in - - ()
Sea Level Pressure  
Sea Level Pressure 29.99 in    
Wind  
Wind Speed 4 mph ()    
Max Wind Speed 14 mph    
Max Gust Speed -    
Visibility 6.0 miles    
Events      
Averages and records for this station are not official NWS values.
T = Trace of Precipitation, MM = Missing Value Source: Averaged Metar Reports

Daily Weather History Graph

Daily Weather History Graph

Search for Another Location

Airport:

Trip Planner

Search our weather history database for the weather conditions in past years. The results will help you decide how hot, cold, wet, or windy it might be!

Date:

Astronomy

Oct. 18, 2012 Rise Set
Actual Time 7:20 AM EEST 6:28 PM EEST
Civil Twilight 6:53 AM EEST 6:54 PM EEST
Nautical Twilight 6:23 AM EEST 7:24 PM EEST
Astronomical Twilight 5:53 AM EEST 7:54 PM EEST
Moon 10:36 AM EEST (10/18) 8:47 PM EEST (10/18)
Length of Visible Light 12h 00m
Length of Day
11h 07m
Waxing Crescent, 12% of the Moon is Illuminated
Oct 18
Waxing Crescent
Oct 22
First Quarter
Oct 29
Full
Nov 7
Last Quarter
Nov 14
New

Hourly Weather History & Observations

Time (EEST) Temp. Heat Index Dew Point Humidity Pressure Visibility Wind Dir Wind Speed Gust Speed Precip Events Conditions
12:20 AM 64.4 °F - 57.2 °F 77% 30.04 in - Variable 1.2 mph - N/A   Clear
12:50 AM 64.4 °F - 59.0 °F 83% 30.04 in - Variable 2.3 mph - N/A   Clear
1:20 AM 64.4 °F - 59.0 °F 83% 30.04 in - Variable 2.3 mph - N/A   Clear
1:50 AM 64.4 °F - 57.2 °F 77% 30.04 in - West 3.5 mph - N/A   Clear
2:20 AM 62.6 °F - 57.2 °F 82% 30.04 in - Variable 1.2 mph - N/A   Clear
3:20 AM 62.6 °F - 57.2 °F 82% 30.04 in 3.7 mi SSE 4.6 mph - N/A   Unknown
3:50 AM 60.8 °F - 55.4 °F 82% 30.04 in - NNE 3.5 mph - N/A   Clear
4:20 AM 60.8 °F - 55.4 °F 82% 30.01 in - Variable 1.2 mph - N/A   Clear
4:50 AM 60.8 °F - 57.2 °F 88% 30.01 in - SSE 2.3 mph - N/A   Clear
5:20 AM 59.0 °F - 53.6 °F 82% 30.01 in - ESE 4.6 mph - N/A   Clear
5:50 AM 57.2 °F - 53.6 °F 88% 30.01 in - Variable 1.2 mph - N/A   Clear
6:20 AM 59.0 °F - 55.4 °F 88% 30.01 in - Variable 2.3 mph - N/A   Clear
6:50 AM 59.0 °F - 53.6 °F 82% 30.01 in - Variable 2.3 mph - N/A   Clear
7:20 AM 59.0 °F - 53.6 °F 82% 30.01 in - Variable 2.3 mph - N/A   Clear
7:50 AM 59.0 °F - 55.4 °F 88% 30.01 in - ESE 3.5 mph - N/A   Clear
8:20 AM 62.6 °F - 57.2 °F 82% 30.01 in - Calm Calm - N/A   Clear
8:50 AM 68.0 °F - 57.2 °F 68% 30.04 in - Calm Calm - N/A   Clear
9:20 AM 69.8 °F - 57.2 °F 64% 30.04 in - Variable 2.3 mph - N/A   Clear
9:50 AM 71.6 °F - 57.2 °F 60% 30.04 in - Variable 2.3 mph - N/A   Clear
10:20 AM 77.0 °F - 57.2 °F 50% 30.04 in - WNW 3.5 mph - N/A   Clear
10:50 AM 82.4 °F 81.7 °F 55.4 °F 39% 30.04 in - WSW 4.6 mph - N/A   Clear
11:20 AM 84.2 °F 82.8 °F 53.6 °F 35% 30.01 in - West 8.1 mph - N/A   Clear
11:50 AM 86.0 °F 84.2 °F 53.6 °F 33% 30.01 in - West 9.2 mph - N/A   Clear
12:20 PM 86.0 °F 84.2 °F 53.6 °F 33% 30.01 in - West 11.5 mph - N/A   Clear
12:50 PM 87.8 °F - 51.8 °F 29% 29.98 in - West 13.8 mph - N/A   Clear
1:20 PM 89.6 °F - 51.8 °F 27% 29.98 in 6.2 mi West 12.7 mph - N/A   Partly Cloudy
1:50 PM 91.4 °F - 50.0 °F 24% 29.95 in 6.2 mi West 11.5 mph - N/A   Partly Cloudy
2:20 PM 91.4 °F 89.1 °F 53.6 °F 28% 29.95 in 6.2 mi WNW 11.5 mph - N/A   Partly Cloudy
2:50 PM 91.4 °F 89.4 °F 55.4 °F 29% 29.95 in 6.2 mi West 10.4 mph - N/A   Partly Cloudy
3:20 PM 91.4 °F 89.4 °F 55.4 °F 29% 29.95 in 6.2 mi West 8.1 mph - N/A   Scattered Clouds
3:50 PM 91.4 °F 89.4 °F 55.4 °F 29% 29.95 in 6.2 mi West 6.9 mph - N/A   Scattered Clouds
4:20 PM 87.8 °F 86.5 °F 57.2 °F 35% 29.95 in 6.2 mi NW 4.6 mph - N/A   Scattered Clouds
4:50 PM 87.8 °F 87.6 °F 60.8 °F 40% 29.92 in 6.2 mi SSW 8.1 mph - N/A   Partly Cloudy
5:20 PM 84.2 °F 85.0 °F 62.6 °F 48% 29.92 in 6.2 mi SSW 10.4 mph - N/A   Partly Cloudy
5:50 PM 84.2 °F 84.4 °F 60.8 °F 45% 29.92 in 6.2 mi SSW 11.5 mph - N/A   Partly Cloudy
6:20 PM 82.4 °F 82.9 °F 60.8 °F 48% 29.95 in 6.2 mi South 8.1 mph - N/A   Partly Cloudy
6:50 PM 80.6 °F 81.5 °F 60.8 °F 51% 29.95 in 6.2 mi SSE 5.8 mph - N/A   Partly Cloudy
7:20 PM 78.8 °F - 60.8 °F 54% 29.95 in 6.2 mi SSE 8.1 mph - N/A   Partly Cloudy
7:50 PM 78.8 °F - 60.8 °F 54% 29.98 in 6.2 mi South 9.2 mph - N/A   Partly Cloudy
8:20 PM 78.8 °F - 60.8 °F 54% 29.98 in - South 5.8 mph - N/A   Clear
8:50 PM 75.2 °F - 60.8 °F 61% 29.98 in - West 4.6 mph - N/A   Clear
9:20 PM 75.2 °F - 59.0 °F 57% 29.98 in - East 2.3 mph - N/A   Clear
9:50 PM 75.2 °F - 57.2 °F 53% 29.98 in - SSE 4.6 mph - N/A   Clear
10:20 PM 73.4 °F - 57.2 °F 57% 29.98 in - South 4.6 mph - N/A   Clear
10:50 PM 71.6 °F - 57.2 °F 60% 29.98 in - Variable 1.2 mph - N/A   Clear
11:20 PM 71.6 °F - 57.2 °F 60% 29.98 in - Variable 1.2 mph - N/A   Clear
11:50 PM 68.0 °F - 59.0 °F 73% 29.98 in - West 5.8 mph - N/A   Clear